Regional Weather Roundup
Issued by NWS Albany, NY

Home | Current Version | Previous Version | Graphics & Text | Print | Product List | Glossary On
Versions: 1 2 3 4 5 6 7 8 9 10 11 12 13 14 15 16 17 18 19 20 21 22 23 24 25 26 27 28
000
ASUS41 KALY 241710
RWRALY

NEW YORK STATE HOURLY WEATHER ROUNDUP
NATIONAL WEATHER SERVICE ALBANY NY
100 PM EDT FRI OCT 24 2014

NOTE: "FAIR" INDICATES FEW OR NO CLOUDS BELOW 12,000 FEET WITH NO
SIGNIFICANT WEATHER AND/OR NO OBSTRUCTIONS TO VISIBILITY.

NYZ032-033-038>043-046>054-057>066-NYZ062>081-241800-
EAST


CITY           SKY/WX    TMP DP  RH WIND       PRES   REMARKS
ALBANY         CLOUDY    49  46  90 NE5       29.83F
GLENS FALLS    CLOUDY    46  43  89 E5        29.83F
POUGHKEEPSIE   PTSUNNY   56  43  61 N6        29.80F
NEWBURGH       PTSUNNY   55  46  71 N12       29.81F
MONTGOMERY     CLOUDY    57  43  59 NW12      29.79F
WHITE PLAINS   PTSUNNY   54  42  64 NW13G24   29.77F
ISLIP          CLOUDY    56  45  66 NW18G29   29.75F
NEW YORK CITY  PTSUNNY   58  43  57 NW18G24   29.78F
CENTRAL PARK   CLOUDY    58  42  55 NW7       29.81F
$$

NYZ005>009-017-018-044>046-055-056-241800-
CENTRAL


CITY           SKY/WX    TMP DP  RH WIND       PRES   REMARKS
FULTON         SUNNY     57  44  62 W15       29.92F
SYRACUSE       MOSUNNY   60  44  55 W18       29.91F
ROME           CLOUDY    59  43  55 W13       29.87F
ELMIRA         SUNNY     62  41  46 NW10G22   29.92F
BINGHAMTON     SUNNY     56  41  57 NW15G24   29.89F
MONTICELLO     PTSUNNY   55  43  62 NW20G31   29.83F
$$

NYZ026>034-041>043-241800-
NORTH


CITY           SKY/WX    TMP DP  RH WIND       PRES   REMARKS
WATERTOWN      SUNNY     59  41  51 W8        29.90F
FORT DRUM      NOT AVBL
MASSENA        CLOUDY    54  42  64 CALM      29.90F
SARANAC LAKE   CLOUDY    44  40  85 NW5       29.84F
PLATTSBURGH    CLOUDY    50  40  68 N12       29.84F
$$

NYZ001>004-010>016-019>021-241800-
WEST


CITY           SKY/WX    TMP DP  RH WIND       PRES   REMARKS
NIAGARA FALLS  PTSUNNY   54  40  59 W10       30.01F
BUFFALO        MOSUNNY   52  39  61 SW15      30.01F
DUNKIRK        PTSUNNY   50  41  71 W10       30.04F
JAMESTOWN      PTSUNNY   50  37  62 W9        30.03F
WELLSVILLE     SUNNY     57  28  33 NW12      29.98F
ROCHESTER      MOSUNNY   58  40  51 W13       29.96F
PENN YAN       SUNNY     59  36  42 W13       29.95F
$$

             KEY
       WCI = WIND CHILL INDEX
       VSB = VISIBILITY
       HX  = HEAT INDEX
$$



USA.gov is the U.S. government's official web portal to all federal, state and local government web resources and services.